• Bienvenue sur Pilotes Québec!
  • Bienvenue sur le site de Pilotes Québec, la nouvelle communauté des pilotes et aviateurs du Québec.
  • L'image de cette semaine nous vient de Denis Morissette!  La photo a été prise à Miguasha, en Gaspésie, lors d'un atterrissage par bon vent de travers et fort vent rabattant en finale.
  • Calendrier des activités
  • sujets récents au forum...
  • Les nouvelles en bref...

Connexion


J'ai oublié mon mot de passe
Renvoyer l'e-mail de confirmation
 

Publicité

Vous aimeriez afficher une publicité pour joindre la communauté des pilotes professionnels et privé du Québec?  Cliquez ici pour en savoir plus!

Conditions actuelles

Click for Quebec, Quebec Forecast

METAR - Québec


2015/07/05 12:00
CYQB 051200Z 24010KT 8SM FEW050 BKN110 18/15 A2998 RMK SC2AC5 SLP152 DENSITY ALT 500FT

TAF - Québec


2015/07/05 12:42
TAF TAF CYQB 051138Z 0512/0612 25008KT 6SM BR FEW009 BKN100
BECMG 0512/0513 P6SM NSW
FM051400 25010KT P6SM FEW012 BKN030
FM051700 27010KT P6SM SCT040
TEMPO 0517/0522 BKN040
BECMG 0523/0601 VRB03KT
RMK NXT FCST BY 051800Z